Redwood Falls, MN

1:00 AM CDT on June 25, 2017 (GMT -0500)
Redwood Falls Municipal

Weather History for KRWF - December, 2012

Change the Weather History Date:

Monday, December 17, 2012

  Actual Average Record
Temperature  
Mean Temperature 21 °F -  
Max Temperature 24 °F 25 °F 58 °F (1939)
Min Temperature 19 °F 11 °F -20 °F (1953)
Degree Days  
Heating Degree Days 44    
Moisture  
Dew Point 18 °F    
Average Humidity 90    
Maximum Humidity 93    
Minimum Humidity 85    
Precipitation  
Precipitation 0.00 in - - ()
Sea Level Pressure  
Sea Level Pressure 29.75 in    
Wind  
Wind Speed 3 mph (East)    
Max Wind Speed 7 mph    
Max Gust Speed -    
Visibility 4 miles    
Events Fog , Snow    
Averages and records for this station are not official NWS values.
T = Trace of Precipitation, MM = Missing Value Source: NWS Daily Summary

Daily Weather History Graph

Daily Weather History Graph

Search for Another Location

Airport or City:

Trip Planner

Search our weather history database for the weather conditions in past years. The results will help you decide how hot, cold, wet, or windy it might be!

Date:

Astronomy

Dec. 17, 2012 Rise Set
Actual Time 7:51 AM CST 4:41 PM CST
Civil Twilight 7:18 AM CST 5:15 PM CST
Nautical Twilight 6:41 AM CST 5:52 PM CST
Astronomical Twilight 6:05 AM CST 6:27 PM CST
Moon 10:50 AM CST (12/17) 10:15 PM CST (12/17)
Length of Visible Light 9h 56m
Length of Day
8h 49m
Waxing Crescent, 25% of the Moon is Illuminated
Dec 17
Waxing Crescent
Dec 19
First Quarter
Dec 28
Full
Jan 4
Last Quarter
Jan 11
New

Hourly Weather History & Observations

Time (CST) Temp. Windchill Dew Point Humidity Pressure Visibility Wind Dir Wind Speed Gust Speed Precip Events Conditions
12:53 AM 19.9 °F 13.4 °F 18.0 °F 92% 29.85 in 3.0 mi NW 4.6 mph - N/A   Overcast
1:39 AM 19.4 °F 12.8 °F 17.6 °F 93% 29.79 in 2.0 mi NNW 4.6 mph - N/A   Overcast
1:53 AM 19.9 °F - 18.0 °F 92% 29.84 in 1.8 mi Calm Calm - N/A   Overcast
1:57 AM 19.4 °F 12.8 °F 17.6 °F 93% 29.79 in 3.0 mi NNW 4.6 mph - N/A   Overcast
2:06 AM 19.4 °F 11.5 °F 17.6 °F 93% 29.78 in 2.5 mi NNW 5.8 mph - N/A   Overcast
2:21 AM 19.4 °F 12.8 °F 17.6 °F 93% 29.79 in 1.5 mi North 4.6 mph - N/A   Overcast
2:53 AM 19.9 °F 13.4 °F 18.0 °F 92% 29.83 in 1.0 mi North 4.6 mph - N/A   Overcast
3:46 AM 19.4 °F 14.3 °F 17.6 °F 93% 29.77 in 2.5 mi NNE 3.5 mph - N/A   Overcast
3:53 AM 19.9 °F 14.9 °F 18.0 °F 92% 29.82 in 1.5 mi North 3.5 mph - N/A   Overcast
4:19 AM 19.4 °F 14.3 °F 17.6 °F 93% 29.77 in 0.8 mi NNE 3.5 mph - N/A   Mist
4:53 AM 19.0 °F - 17.1 °F 92% 29.81 in 0.5 mi Calm Calm - N/A Fog Light Freezing Fog
5:53 AM 19.9 °F - 17.1 °F 89% 29.81 in 0.5 mi Calm Calm - N/A Fog Light Freezing Fog
6:19 AM 19.4 °F - 17.6 °F 93% 29.76 in 2.0 mi Calm Calm - N/A   Overcast
6:27 AM 19.4 °F - 17.6 °F 93% 29.76 in 6.0 mi Calm Calm - N/A   Overcast
6:41 AM 19.4 °F - 17.6 °F 93% 29.76 in 6.0 mi Calm Calm - N/A   Overcast
6:53 AM 19.9 °F - 16.0 °F 85% 29.82 in 7.0 mi Calm Calm - N/A   Overcast
7:53 AM 19.9 °F - 17.1 °F 89% 29.81 in 3.0 mi Calm Calm - N/A   Overcast
7:57 AM 19.4 °F - 17.6 °F 93% 29.76 in 1.8 mi Calm Calm - N/A   Overcast
8:11 AM 19.4 °F - 17.6 °F 93% 29.76 in 0.8 mi Calm Calm - N/A   Overcast
8:31 AM 19.4 °F - 17.6 °F 93% 29.76 in 1.8 mi Calm Calm - N/A   Overcast
8:40 AM 19.4 °F - 17.6 °F 93% 29.76 in 2.0 mi Calm Calm - N/A   Overcast
8:53 AM 19.9 °F - 18.0 °F 92% 29.81 in 1.5 mi Calm Calm - N/A   Overcast
9:17 AM 21.2 °F - 17.6 °F 86% 29.75 in 2.5 mi Calm Calm - N/A   Overcast
9:25 AM 21.2 °F - 17.6 °F 86% 29.76 in 4.0 mi Calm Calm - N/A   Overcast
9:38 AM 21.2 °F - 17.6 °F 86% 29.75 in 4.0 mi Calm Calm - N/A   Overcast
9:53 AM 21.0 °F - 18.0 °F 88% 29.80 in 5.0 mi Calm Calm - N/A   Overcast
10:53 AM 21.9 °F - 19.9 °F 92% 29.80 in 5.0 mi Calm Calm - N/A   Overcast
11:53 AM 21.9 °F 15.7 °F 19.0 °F 89% 29.78 in 6.0 mi South 4.6 mph - N/A   Overcast
12:53 PM 21.9 °F 15.7 °F 19.0 °F 89% 29.75 in 5.0 mi SSE 4.6 mph - N/A   Overcast
1:53 PM 21.9 °F - 19.0 °F 89% 29.73 in 4.0 mi Calm Calm - N/A   Overcast
2:31 PM 21.2 °F - 19.4 °F 93% 29.67 in 5.0 mi Calm Calm - N/A   Overcast
2:51 PM 21.2 °F 14.9 °F 19.4 °F 93% 29.67 in 5.0 mi SSE 4.6 mph - N/A   Overcast
2:53 PM 21.9 °F 17.2 °F 19.0 °F 89% 29.72 in 5.0 mi SE 3.5 mph - N/A   Overcast
3:16 PM 21.2 °F 16.4 °F 19.4 °F 93% 29.68 in 6.0 mi South 3.5 mph - N/A   Overcast
3:53 PM 23.0 °F 18.4 °F 19.0 °F 85% 29.73 in 6.0 mi SE 3.5 mph - N/A   Overcast
4:00 PM 21.2 °F 14.9 °F 19.4 °F 93% 29.68 in 5.0 mi SE 4.6 mph - N/A   Overcast
6:42 PM 21.2 °F 14.9 °F 19.4 °F 93% 29.68 in 5.0 mi ESE 4.6 mph - 0.00 in Snow Light Snow
6:53 PM 23.0 °F 17.0 °F 19.9 °F 88% 29.72 in 5.0 mi ESE 4.6 mph - 0.00 in Snow Light Snow
7:27 PM 21.2 °F 12.6 °F 19.4 °F 93% 29.67 in 5.0 mi East 6.9 mph - 0.00 in Snow Light Snow
7:53 PM 21.9 °F 14.5 °F 19.9 °F 92% 29.72 in 6.0 mi East 5.8 mph - 0.00 in   Overcast
8:53 PM 23.0 °F 18.4 °F 19.0 °F 85% 29.72 in 7.0 mi East 3.5 mph - 0.00 in   Overcast
9:29 PM 23.0 °F 17.0 °F 19.4 °F 86% 29.68 in 7.0 mi ESE 4.6 mph - N/A   Overcast
9:39 PM 23.0 °F 18.4 °F 19.4 °F 86% 29.68 in 7.0 mi East 3.5 mph - N/A   Overcast
9:53 PM 23.0 °F 17.0 °F 19.9 °F 88% 29.72 in 7.0 mi East 4.6 mph - N/A   Overcast
10:16 PM 23.0 °F 17.0 °F 19.4 °F 86% 29.67 in 7.0 mi East 4.6 mph - N/A   Overcast
10:48 PM 23.0 °F 15.8 °F 19.4 °F 86% 29.66 in 6.0 mi ESE 5.8 mph - N/A   Overcast
10:53 PM 23.0 °F 17.0 °F 19.9 °F 88% 29.71 in 6.0 mi ESE 4.6 mph - N/A   Overcast
11:53 PM 24.1 °F 18.2 °F 21.0 °F 88% 29.69 in 6.0 mi ESE 4.6 mph - N/A   Overcast